Overview Statistics Trail Chart Weather Telemetry Raw packets
 

This is the latest recevied weather packets stored in our database for station/object s59zo-6. If no packets are shown the sender has not sent any weather packets the latest 10 day(s).

<< 24 25 26 27 28 29 30 >>
Time Temp. Humidity Pressure Rain* Wind** Luminosity Snow
1788533704 31.67° C 35% 1017.3 hPa 0 mm - - -
1788533405 31.67° C 35% 1017.3 hPa 0 mm - - -
1788533104 32.22° C 35% 1017.3 hPa 0 mm - - -
1788532805 32.22° C 35% 1017.4 hPa 0 mm - - -
1788532504 32.22° C 35% 1017.5 hPa 0 mm - - -
1788532205 32.22° C 35% 1017.4 hPa 0 mm - - -
1788531904 32.22° C 36% 1017.6 hPa 0 mm - - -
1788531605 31.67° C 36% 1017.4 hPa 0 mm - - -
1788531304 31.67° C 35% 1017.5 hPa 0 mm - - -
1788531005 31.67° C 37% 1017.5 hPa 0 mm - - -
1788530704 31.67° C 40% 1017.5 hPa 0 mm - - -
1788530405 31.67° C 40% 1017.6 hPa 0 mm - - -
1788530104 31.11° C 40% 1017.6 hPa 0 mm - - -
1788529805 31.67° C 40% 1017.7 hPa 0 mm - - -
1788529504 31.11° C 39% 1017.7 hPa 0 mm - - -
1788529205 31.11° C 39% 1017.7 hPa 0 mm - - -
1788528904 31.11° C 40% 1017.8 hPa 0 mm - - -
1788528605 31.11° C 39% 1017.9 hPa 0 mm - - -
1788528304 30.56° C 39% 1017.9 hPa 0 mm - - -
1788528004 30.56° C 40% 1018 hPa 0 mm - - -
1788527704 30.56° C 40% 1018.1 hPa 0 mm - - -
1788527405 30.56° C 40% 1018.1 hPa 0 mm - - -
1788527104 30° C 40% 1018.3 hPa 0 mm - - -
1788526804 30° C 40% 1018.4 hPa 0 mm - - -
1788526504 30° C 39% 1018.4 hPa 0 mm - - -

* Rain latest hour (hover to see other rain measurements)
** Current wind speed in m/s (hover to see current wind gust speed)